x

8454000 - Providence, Ri (foxr1) Weather Station

9:18 - Tue 25th Nov 2014 All times are EST. -5 hours from GMT.

  • Wind
    3mph, 9mph gusts
  • Sea Temp 48°f
  • Luft Temp 51°f
  • Sea Pressure 1017.8mb
  • 8454000 - Providence, Ri
  • 8454000 - Providence, Ri

More Historic Weather Station data

Upgrade to MSW Pro to gain access to the past 30 days of data for over 8000 Wavebouys and Weather Stations around the globe.

Join Pro

Comparision Forecast

View Surf forecast
   
Di 11/25 9:18 3 9 mph 1017.8mb 48f 51f
9:12 5 9 mph 1017.6mb 48f 51f
9:06 5 9 mph 1017.6mb 48f 51f
9:00 6 10 mph 1017.3mb 48f 51f
8:54 7 10 mph 1017.3mb 48f 51f
8:48 7 13 mph 1017.3mb 48f 51f
8:42 8 11 mph 1017.2mb 48f 51f
8:36 7 11 mph 1017.1mb 48f 51f
8:30 9 13 mph 1017.3mb - 51f
8:24 8 11 mph 1017.2mb - 52f
8:18 8 11 mph 1016.9mb 48f 52f
8:12 8 13 mph 1016.8mb 49f 52f
8:06 7 11 mph 1016.7mb 49f 52f
8:00 7 11 mph 1016.6mb 49f 52f
7:54 6 10 mph 1016.4mb 49f 52f
7:48 8 10 mph 1016.2mb 49f 52f
7:42 7 10 mph 1016.2mb 49f 52f
7:36 7 13 mph 1016.3mb 49f 52f
7:30 6 10 mph 1016.1mb 49f 53f
7:24 7 15 mph 1015.9mb 49f 53f
7:18 6 9 mph 1015.8mb 49f 53f
7:12 6 9 mph 1015.7mb 49f 53f
7:06 7 13 mph 1015.7mb 49f 53f
7:00 7 11 mph 1015.8mb 49f 53f
6:54 9 13 mph 1015.8mb 49f 53f
6:48 9 11 mph 1015.5mb 49f 53f
6:42 8 14 mph 1015.5mb 49f 54f
6:36 7 13 mph 1015.3mb 49f 54f
6:30 8 14 mph 1015.2mb 49f 54f
6:24 9 13 mph 1015.2mb 48f 54f
6:18 9 14 mph 1014.9mb 48f 54f
6:12 8 11 mph 1014.5mb 48f 55f
6:06 8 13 mph 1014.8mb 48f 55f
6:00 6 10 mph 1014.9mb 48f 55f
5:54 8 11 mph 1014.9mb 48f 55f
5:48 8 11 mph 1015mb 48f 55f
5:42 5 6 mph 1014.8mb 47f 56f
5:36 3 6 mph 1014.6mb 47f 56f
5:30 5 6 mph 1014.4mb 47f 56f
5:24 5 7 mph 1014.2mb 47f 56f
5:18 6 8 mph 1014.3mb 47f 56f
5:12 5 6 mph 1014.3mb 47f 56f
5:06 5 7 mph 1014.3mb 47f 56f
5:00 3 6 mph 1014mb 47f 57f
4:54 5 7 mph 1014mb 47f 57f
4:48 3 7 mph 1014mb 47f 57f
4:42 6 8 mph 1013.8mb 47f 57f
4:36 7 10 mph 1013.7mb 47f 57f
4:30 6 9 mph 1013.6mb 47f 58f
4:24 7 13 mph 1013.5mb 47f 58f
4:18 9 16 mph 1013.3mb 47f 58f
4:12 7 10 mph 1013mb 47f 58f
4:06 9 15 mph 1012.8mb 47f 58f
4:00 8 10 mph 1012.7mb 47f 58f
3:54 9 13 mph 1012.4mb 47f 58f
3:48 10 14 mph 1012.7mb 47f 58f
3:42 11 15 mph 1012.7mb 47f 58f
3:36 10 15 mph 1012.4mb 47f 59f
3:30 9 15 mph 1012.5mb 47f 59f
3:24 9 15 mph 1012.4mb 47f 59f
3:18 8 13 mph 1012.3mb 48f 59f
3:12 10 13 mph 1012.4mb 48f 59f
3:06 9 17 mph 1012.2mb 48f 59f
3:00 11 15 mph 1012.1mb 48f 59f
2:54 10 15 mph 1012.4mb 48f 59f
2:48 10 15 mph 1012.3mb 48f 59f
2:42 13 15 mph 1012.3mb 48f 60f
2:36 10 14 mph 1012.2mb 48f 60f
2:30 11 14 mph 1012mb 48f 60f
2:24 8 16 mph 1011.9mb 48f 60f
2:18 9 17 mph 1012.2mb 48f 60f
2:12 10 18 mph 1012.1mb 48f 60f
2:06 13 17 mph 1012.1mb 48f 60f
2:00 13 17 mph 1012.1mb 48f 60f
1:54 8 15 mph 1011.9mb 48f 60f
1:48 11 17 mph 1012.1mb 48f 60f
1:42 8 13 mph 1012.1mb 48f 60f
1:36 11 14 mph 1012.1mb 48f 61f
1:30 7 13 mph 1011.9mb 48f 61f
1:24 7 13 mph 1011.7mb 48f 61f
1:18 7 9 mph 1011.7mb 48f 61f
1:12 9 11 mph 1011.9mb 48f 61f
1:06 8 11 mph 1011.9mb 48f 61f
1:00 8 11 mph 1011.9mb 48f 61f
12:54 6 9 mph 1011.8mb 48f 61f
12:48 11 15 mph 1011.8mb 48f 61f
12:42 8 14 mph 1011.5mb 48f 61f
12:36 11 17 mph 1011.7mb 48f 61f
12:30 10 14 mph 1011.7mb 48f 61f
12:24 11 17 mph 1011.8mb 48f 62f
12:18 9 17 mph 1011.8mb 48f 62f
12:12 10 17 mph 1011.9mb 48f 62f
12:06 8 15 mph 1011.9mb 48f 62f
12:00 11 15 mph 1012.1mb 48f 62f
11:54 10 17 mph 1012.2mb 47f 62f
11:48 11 15 mph 1012mb 47f 62f
11:42 11 16 mph 1012.1mb 47f 62f
11:36 7 16 mph 1012mb 47f 62f
11:30 7 11 mph 1011.9mb 47f 62f
11:24 8 15 mph 1012mb 47f 62f
11:18 10 15 mph 1012.1mb 47f 62f
11:12 7 10 mph 1011.9mb 47f 63f
11:06 6 15 mph 1012mb 47f 63f
11:00 9 17 mph 1011.8mb 47f 63f
10:54 8 14 mph 1011.8mb 47f 63f
10:48 6 13 mph 1011.9mb 48f 63f
10:42 9 13 mph 1011.7mb 48f 63f
10:36 8 14 mph 1011.5mb 48f 63f
10:30 11 15 mph 1011.5mb 48f 64f
10:24 10 18 mph 1011.4mb 48f 64f
10:18 11 16 mph 1011.5mb 48f 64f
10:12 8 13 mph 1011.5mb 48f 64f
10:06 7 16 mph 1011.5mb 48f 64f
10:00 10 16 mph 1011.6mb 48f 64f
9:54 8 13 mph 1011.5mb 48f 64f
9:48 11 16 mph 1011.5mb 48f 64f
9:42 9 14 mph 1011.4mb 48f 64f
9:36 9 15 mph 1011.4mb 48f 64f
9:30 8 11 mph 1011.3mb 48f 63f
9:24 6 14 mph 1011.2mb 48f 63f
9:18 6 15 mph - - -
9:12 9 13 mph - - -
9:06 8 13 mph - - -
9:00 6 9 mph 1011.1mb 48f 61f
8:54 6 10 mph 1010.9mb 48f 61f
8:48 8 10 mph 1010.8mb 48f 60f
8:42 3 11 mph 1010.8mb 48f 60f
8:36 6 8 mph 1010.7mb 48f 60f
8:30 5 8 mph 1010.7mb 48f 59f
8:24 7 9 mph 1010.7mb 49f 59f
8:18 6 8 mph 1010.5mb 49f 59f
8:12 6 8 mph 1010.8mb 49f 58f
8:06 5 7 mph 1010.7mb 49f 58f
8:00 6 8 mph 1010.8mb 49f 58f
7:54 5 7 mph 1010.9mb 49f 58f
7:48 5 6 mph 1010.7mb 49f 57f
7:42 5 7 mph 1010.4mb 49f 57f
7:36 6 7 mph 1010.2mb 49f 57f
7:30 3 6 mph 1010.2mb 49f 57f
7:24 3 6 mph 1010.2mb 49f 58f
7:18 3 5 mph 1010mb 49f 57f
7:12 3 5 mph 1010.1mb 49f 57f
7:06 5 6 mph 1010.1mb 49f 57f
7:00 6 8 mph 1010.3mb 49f 57f
6:54 5 6 mph 1010mb 49f 56f
6:48 5 6 mph 1009.7mb 49f 56f
6:42 6 7 mph 1009.6mb 49f 57f
6:36 6 8 mph 1009.5mb 49f 57f
6:30 6 7 mph 1009.5mb 49f 57f
6:24 3 7 mph 1009.5mb 49f 57f
6:18 5 7 mph 1009.5mb 49f 58f
6:12 6 7 mph 1009.4mb 49f 58f
6:06 6 8 mph 1009.3mb 49f 58f
6:00 8 13 mph 1009.3mb 49f 58f
5:54 6 10 mph 1009.1mb 48f 58f
5:48 7 9 mph 1009mb 48f 58f
5:42 7 13 mph 1009.1mb 48f 58f
5:36 8 10 mph 1009mb 48f 58f
5:30 8 14 mph 1008.9mb 48f 58f
5:24 9 14 mph 1008.9mb 48f 58f
5:18 9 14 mph 1009mb 48f 58f
5:12 9 13 mph 1009mb 48f 58f
5:06 7 13 mph 1008.8mb 48f 58f
5:00 8 13 mph 1008.5mb 48f 58f
4:54 8 11 mph 1008.2mb 48f 58f
4:48 8 14 mph 1007.8mb 48f 58f
4:42 9 11 mph 1007.9mb 48f 58f
4:36 10 14 mph 1007.8mb 48f 59f
4:30 7 13 mph 1007.7mb 48f 58f
4:24 6 10 mph 1008mb 48f 58f
4:18 8 11 mph 1008mb 48f 58f
4:12 7 10 mph 1008mb 48f 58f
4:06 7 9 mph 1007.8mb 48f 58f
4:00 6 9 mph 1007.3mb 48f 58f
3:54 6 8 mph 1007.2mb 48f 58f
3:48 6 7 mph 1007.3mb 47f 58f
3:42 5 7 mph 1007mb 48f 58f
3:36 3 7 mph 1007mb 48f 58f
3:30 6 8 mph 1007.1mb 48f 58f
3:24 7 10 mph 1007mb 48f 58f
3:18 6 9 mph 1007mb 48f 58f
3:12 6 8 mph 1007.1mb 48f 58f
3:06 5 11 mph 1007mb 48f 57f
3:00 7 9 mph 1006.9mb 48f 57f
2:54 7 8 mph 1006.8mb 48f 57f
2:48 5 8 mph 1007mb 48f 55f
2:42 7 8 mph 1006.8mb 48f 55f
2:36 9
mph
1006.8mb 48f 55f
2:30 8 10 mph 1006.7mb 48f 55f
2:24 9 13 mph 1006.7mb 48f 56f
2:18 10 11 mph 1006.7mb 48f 58f
2:12 9 10 mph 1006.7mb 48f 58f
2:06 8 9 mph 1006.6mb 48f 58f
2:00 6 7 mph 1006.4mb 48f 58f
1:54 5 7 mph 1006.3mb 48f 58f
1:48 3 8 mph 1006.4mb 48f 58f
1:42 6 8 mph 1006.7mb 48f 58f
1:36 6 11 mph 1006.8mb 48f 58f
1:30 7 9 mph 1006.9mb 48f 58f
1:24 7 9 mph 1006.7mb 48f 58f
1:18 8 11 mph 1006.5mb 48f 57f
1:12 6 9 mph 1006.4mb 48f 56f
1:06 6 9 mph 1006.4mb 48f 55f
1:00 9
mph
1006.3mb 48f 54f
12:54 8 10 mph 1006mb 48f 54f
12:48 7 8 mph 1005.8mb 48f 54f
12:42 6 8 mph 1005.8mb 47f 54f
12:36 7 9 mph 1006mb 47f 56f
12:30 7 9 mph 1005.9mb 47f 55f
12:24 8
mph
1005.9mb 48f 55f
12:18 5 7 mph 1005.8mb 48f 56f
12:12 7 8 mph 1005.7mb 48f 56f
12:06 5 8 mph 1005.8mb 48f 56f
12:00 7 8 mph 1005.8mb 48f 55f
Mo 11/24 11:54 3 6 mph 1005.7mb 48f 56f
11:48 5 6 mph 1005.6mb 48f 57f
11:42 6 9 mph 1005.5mb 48f 56f
11:36 9 10 mph 1005.5mb 48f 57f
11:30 5 9 mph 1005.6mb 48f 59f
11:24 7 9 mph 1005.7mb 48f 58f
11:18 5 7 mph 1005.5mb 48f 59f
11:12 6 7 mph 1005.5mb 48f 59f
11:06 5 8 mph 1005.5mb 48f 60f
11:00 7 8 mph 1005.6mb 48f 60f
10:54 5 8 mph 1005.6mb 48f 60f
10:48 6 8 mph 1005.6mb 48f 60f
10:42 6 8 mph 1005.5mb 48f 60f
10:36 5 8 mph 1005.4mb 48f 60f
10:30 7 9 mph 1005.6mb 48f 61f
10:24 6 11 mph 1005.4mb 48f 62f
10:18 8 18 mph 1005.3mb 48f 62f
10:12 7 14 mph 1005.2mb 48f 62f
10:06 10 15 mph 1005.1mb 48f 62f
10:00 10 15 mph 1005.1mb 48f 62f
9:54 8 14 mph 1005.2mb 48f 62f
9:48 9 15 mph 1005.2mb 48f 62f
9:42 9 15 mph 1005.2mb 48f 62f
9:36 7 14 mph 1005.2mb 48f 61f
9:30 6 10 mph 1005.2mb 48f 61f
9:24 7 16 mph 1005.3mb 48f 61f
9:18 9 15 mph 1005.2mb 48f 61f
9:12 7 14 mph 1005.1mb 48f 61f
9:06 7 11 mph 1005mb 48f 61f
9:00 7 11 mph 1005mb 48f 61f
8:54 8 15 mph 1004.9mb 48f 61f
8:48 9 14 mph 1004.9mb 48f 61f
8:42 8 15 mph 1004.9mb 48f 61f
8:36 13 20 mph 1004.9mb 48f 61f
8:30 8 13 mph 1004.9mb 48f 61f
8:24 8 14 mph 1004.9mb 48f 61f
8:18 11 16 mph 1004.8mb 48f 62f
8:12 8 14 mph 1004.8mb 48f 62f
8:06 9 16 mph 1004.7mb 48f 62f
8:00 14 23 mph 1004.6mb 48f 62f
7:54 9 16 mph 1004.4mb 48f 62f
7:48 10 16 mph 1004.5mb 48f 62f
7:42 11 21 mph 1004.5mb 48f 62f
7:36 15 23 mph 1004.4mb 48f 62f
7:30 9 21 mph 1004.3mb 48f 62f
7:24 13 21 mph 1004.3mb 48f 62f
7:18 11 22 mph 1004.3mb 48f 62f
7:12 9 20 mph 1004.1mb 48f 62f
7:06 15 23 mph 1004mb 48f 62f
7:00 10 21 mph 1004mb 48f 62f
6:54 13 20 mph 1004mb 48f 63f
6:48 13 22 mph 1004mb 48f 63f
6:42 17 29 mph 1004mb 48f 63f
6:36 15 22 mph 1003.9mb 48f 63f
6:30 15 32 mph 1003.7mb 48f 63f
6:24 20 30 mph 1003.5mb 48f 63f
6:18 20 36 mph 1003.5mb 48f 63f
6:12 20 34 mph 1003.4mb 48f 63f
6:06 16 29 mph 1003.2mb 48f 63f
6:00 15 26 mph 1003.1mb 47f 63f
5:54 16 24 mph 1003mb 47f 63f
5:48 18 25 mph 1002.6mb 47f 63f
5:42 18 29 mph 1002.5mb 47f 63f
5:36 17 29 mph 1002.5mb 47f 62f
5:30 17 32 mph 1002.7mb 47f 63f
5:24 13 23 mph 1002.8mb 47f 63f
5:18 14 28 mph 1002.8mb 47f 63f
5:12 20 29 mph 1002.7mb 47f 63f
5:06 13 21 mph 1002.9mb 47f 63f
5:00 11 30 mph 1002.9mb 47f 63f
4:54 14 23 mph 1003mb 47f 63f
4:48 14 20 mph 1003mb 47f 63f
4:42 14 21 mph 1002.9mb 47f 63f
4:36 10 24 mph 1002.7mb 47f 62f
4:30 16 24 mph 1002.6mb 47f 62f
4:24 14 17 mph 1002.6mb 47f 62f
4:18 16 22 mph 1002.5mb 47f 62f
4:12 13 24 mph 1002.7mb 47f 63f
4:06 16 24 mph 1002.7mb 47f 63f
4:00 13 23 mph 1002.6mb 46f 63f
3:54 13 23 mph 1002.6mb 46f 63f
3:48 15 23 mph 1002.6mb 46f 63f
3:42 11 20 mph 1002.6mb 46f 63f
3:36 17 24 mph 1002.6mb 46f 63f
3:30 14 22 mph 1002.6mb 46f 63f
3:24 16 24 mph 1002.7mb 46f 63f
3:18 17 28 mph 1002.6mb 46f 63f
3:12 14 23 mph 1002.7mb 46f 63f
3:06 16 29 mph 1002.8mb 46f 64f
3:00 18 28 mph 1002.8mb 46f 63f
2:54 18 26 mph 1002.9mb 46f 64f
2:48 16 23 mph 1002.9mb 46f 64f
2:42 14 20 mph 1002.9mb 46f 64f
2:36 18 23 mph 1002.8mb 46f 64f
2:30 13 23 mph 1002.9mb 46f 64f
2:24 13 18 mph 1003mb 46f 64f
2:18 14 24 mph 1003.1mb 46f 65f
2:12 14 29 mph 1003.2mb 46f 65f
2:06 17 23 mph 1003.1mb 46f 64f
2:00 15 22 mph 1003.1mb 46f 65f
1:54 14 20 mph 1003.1mb 46f 65f
1:48 14 22 mph 1003.1mb 46f 65f
1:42 16 24 mph 1003.3mb 46f 65f
1:36 17 25 mph 1003.4mb 46f 65f
1:30 20 28 mph 1003.4mb 46f 65f
1:24 15 25 mph 1003.4mb 46f 65f
1:18 14 23 mph 1003.4mb 46f 65f
1:12 22 32 mph 1003.5mb 46f 65f
1:06 18 28 mph 1003.5mb 46f 65f
1:00 18 25 mph 1003.5mb 46f 65f
12:54 21 25 mph 1003.6mb 46f 65f
12:48 14 26 mph 1003.6mb 46f 65f
12:42 9 21 mph 1003.7mb 46f 65f
12:36 16 22 mph 1003.8mb 46f 65f
12:30 22 31 mph 1003.9mb 47f 66f
12:24 20 25 mph 1004mb 47f 65f
12:18 17 25 mph 1004.1mb 47f 65f
12:12 13 22 mph 1004.2mb 47f 65f
12:06 14 22 mph 1004.4mb 47f 65f
12:00 18 30 mph 1004.4mb 47f 65f
11:54 21 28 mph 1004.5mb 47f 65f
11:48 14 29 mph 1004.6mb 47f 65f
11:42 21 29 mph 1004.6mb 47f 65f
11:36 11 24 mph 1004.6mb 47f 65f
11:30 13 25 mph 1004.7mb 47f 65f
11:24 14 23 mph 1004.8mb 47f 65f
11:18 15 21 mph 1004.8mb 47f 64f
11:12 9 16 mph 1005mb 47f 63f
11:06 8 15 mph 1005mb 47f 63f
11:00 8 11 mph 1005.1mb 47f 61f
10:54 9 11 mph 1005.1mb 47f 61f
10:48 10 17 mph 1005.3mb 47f 61f
10:42 8 15 mph 1005.4mb 47f 62f
10:36 9 18 mph 1005.4mb 47f 61f
10:30 14 25 mph 1005.5mb 48f 61f
10:24 14 24 mph 1005.5mb 47f 61f
10:18 16 25 mph 1005.7mb 47f 61f
10:12 23 32 mph 1006mb 47f 61f
10:06 21 31 mph 1006mb 47f 61f
10:00 20 24 mph 1006mb 47f 60f
9:54 23 32 mph 1006mb 47f 60f
9:48 15 29 mph 1006.3mb 48f 60f
9:42 23 37 mph 1006.5mb 48f 60f
9:36 23 34 mph 1006.5mb 48f 60f
9:30 20 34 mph 1006.2mb 48f 60f
9:24 18 33 mph 1006.2mb 48f 60f
9:18 28 38 mph 1006.3mb 48f 60f
9:12 21 29 mph 1006.5mb 48f 60f
9:06 26 40 mph 1006.5mb 48f 60f
9:00 17 28 mph 1006.8mb 48f 60f
8:54 17 28 mph 1006.9mb 48f 57f
8:48 24 33 mph 1006.7mb 48f 57f
8:42 24 31 mph 1007.1mb 47f 57f
8:36 21 29 mph 1007.3mb 47f 57f
8:30 18 30 mph 1007.3mb 47f 56f
8:24 23 28 mph 1007.3mb 47f 56f
8:18 23 29 mph 1007.6mb 47f 56f
8:12 25 36 mph 1007.9mb 47f 57f
8:06 23 30 mph 1008.2mb 47f 56f
8:00 22 30 mph 1008.3mb 47f 56f
7:54 28 32 mph 1008.2mb 47f 56f
7:48 25 34 mph 1008.2mb 47f 56f
7:42 25 34 mph 1008.5mb 47f 56f
7:36 25 31 mph 1008.5mb 46f 56f
7:30 25 31 mph 1008.6mb 46f 57f
7:24 25 34 mph 1008.4mb 46f 55f
7:18 24 31 mph 1008.9mb 46f 55f
7:12 22 30 mph 1009.6mb 46f 55f
7:06 16 25 mph 1009.8mb 46f 55f
7:00 18 29 mph 1009.8mb 46f 55f
6:54 20 26 mph 1010mb 46f 54f
6:48 20 30 mph 1010.6mb 46f 55f
6:42 18 23 mph 1010.9mb 46f 55f
6:36 18 26 mph 1010.9mb 46f 55f
6:30 17 24 mph 1010.8mb 47f 55f
6:24 17 22 mph 1011mb 46f 55f
6:18 18 25 mph 1011.1mb 47f 55f
6:12 20 26 mph 1011.2mb 47f 55f
6:06 20 24 mph 1011.2mb 47f 55f
6:00 18 23 mph 1011.3mb 47f 54f
5:54 17 22 mph 1011.5mb 47f 54f
5:48 17 22 mph 1011.6mb 47f 54f
5:42 16 23 mph 1011.7mb 47f 54f
5:36 18 24 mph 1011.7mb 47f 55f
5:30 16 21 mph 1011.8mb 47f 56f
5:24 14 22 mph 1011.6mb 47f 56f
5:18 14 18 mph 1011.7mb 47f 56f
5:12 13 16 mph 1011.8mb 47f 55f
5:06 13 22 mph 1012mb 47f 56f
5:00 14 17 mph 1012.2mb 47f 56f
4:54 10 14 mph 1012.1mb 47f 56f
4:48 11 17 mph 1012.1mb 47f 55f
4:42 10 14 mph 1012.3mb 46f 53f
4:36 8 13 mph 1012.7mb 47f 51f
4:30 7 11 mph 1013mb 46f 50f
4:24 1 3 mph 1013.4mb 46f 47f
4:18  -  1 mph 1013.8mb 46f 46f
4:12  -  2 mph 1013.9mb 46f 46f
4:06 1 2 mph 1014mb 46f 46f
4:00 1 2 mph 1014.1mb 46f 45f
3:54  -  mph 1014mb 46f 45f
3:48  -  2 mph 1014.1mb 46f 44f
3:42 2
mph
1014.1mb 46f 44f
3:36 2 5 mph 1014.2mb 46f 44f
3:30 5
mph
1014.2mb 46f 44f
3:24 2 3 mph 1014.6mb 46f 44f
3:18 3 5 mph 1014.8mb 46f 44f
3:12 5 6 mph 1014.9mb 46f 44f
3:06 5
mph
1015mb 46f 44f
3:00 5 6 mph 1015.3mb 46f 43f
2:54 3 5 mph 1015.5mb 46f 43f
2:48 3 6 mph 1015.7mb 46f 43f
2:42 5 6 mph 1015.7mb 46f 44f
2:36 5
mph
1015.9mb 46f 44f
2:30 3 5 mph 1016.2mb 46f 43f
2:24 5 6 mph 1016.1mb 46f 43f
2:18 3 5 mph 1016.1mb 46f 43f
2:12 3 5 mph 1016.4mb 46f 43f
2:06 3 5 mph 1016.5mb 46f 43f
2:00 3 5 mph 1016.6mb 46f 43f
1:54 5
mph
1016.6mb 46f 43f
1:48 3
mph
1016.8mb 46f 43f
1:42 3
mph
1016.8mb 46f 43f
1:36 2
mph
1017mb 46f 43f
1:30 2
mph
1017mb 46f 43f
1:24 3
mph
1017mb 46f 43f
1:18 3
mph
1017mb 46f 43f
1:12 3 5 mph 1017.1mb 46f 43f
1:06 3 5 mph 1017.1mb 46f 43f
1:00 3
mph
1017.1mb 46f 43f
12:54 2 3 mph 1017.2mb 46f 43f
12:48 1 2 mph 1017.4mb 46f 44f
12:42  -  mph 1017.6mb 46f 44f
12:36  -  2 mph 1017.7mb 46f 44f
12:30 2
mph
1017.6mb 46f 44f
12:24 1 2 mph 1017.6mb 46f 44f
12:18  -  1 mph 1017.8mb 46f 44f
12:12  -  1 mph 1017.9mb 46f 44f
12:06  -  2 mph 1018mb 46f 44f
12:00 1 2 mph 1018.1mb 46f 44f
So 11/23 11:54 1 2 mph 1018.2mb 46f 43f
11:48  -  1 mph 1018.2mb 46f 43f
11:42  -  1 mph 1018.3mb 46f 44f
11:36  -  1 mph 1018.4mb 46f 44f
11:30  -  2 mph 1018.5mb 46f 44f
11:24  -  2 mph 1018.6mb 46f 44f
11:18  -  1 mph 1018.8mb 46f 43f
11:12 1 3 mph 1018.9mb 46f 44f
11:06 2 5 mph 1018.9mb 46f 44f
11:00 3 5 mph 1019mb 46f 44f
10:54 5 6 mph 1019.1mb 46f 44f
10:48 5 6 mph 1019.2mb 46f 43f
10:42 5 6 mph 1019.2mb 46f 43f
10:36 5 6 mph 1019.3mb 46f 43f
10:30 5 7 mph 1019.4mb 46f 43f
10:24 6 7 mph 1019.4mb 46f 43f
10:18 5 6 mph 1019.5mb 46f 43f
10:12 5
mph
1019.3mb 46f 43f
10:06 5
mph
1019.5mb 46f 43f
10:00 3 5 mph 1019.5mb 46f 43f
9:54 3 5 mph 1019.5mb 46f 43f
9:48 2
mph
1019.5mb 46f 44f
9:42 2 3 mph 1019.5mb 46f 44f
9:36 3 5 mph 1019.5mb 46f 44f
9:30 3 6 mph 1019.4mb 46f 44f
9:24 5 7 mph 1019.8mb 46f 44f
9:18 6 7 mph 1019.8mb 46f 44f
9:12 5
mph
1019.7mb 46f 44f
9:06 5 7 mph 1019.7mb 46f 44f
9:00 6 7 mph 1019.8mb 46f 44f
8:54 5 7 mph 1019.8mb 46f 44f
8:48 6 7 mph 1019.7mb 46f 44f
8:42 5 7 mph 1019.7mb 46f 44f
8:36 6 7 mph 1019.8mb 46f 45f
8:30 7 8 mph 1019.9mb 46f 44f
8:24 3 5 mph 1019.9mb 46f 45f
8:18 2 5 mph 1019.9mb 46f 45f
8:12 2 5 mph 1020mb 46f 45f
8:06 3 7 mph 1019.9mb 46f 45f
8:00 3 5 mph 1019.9mb 46f 45f
7:54 3 5 mph 1019.9mb 46f 45f
7:48 5 6 mph 1020mb 47f 45f
7:42 6 8 mph 1020mb 47f 45f
7:36 7 8 mph 1020.1mb 47f 45f
7:30 7
mph
1020mb 47f 45f
7:24 5 7 mph 1019.8mb 47f 46f
7:18 6 7 mph 1019.8mb 47f 46f
7:12 5
mph
1019.8mb 47f 46f
7:06 3 6 mph 1019.9mb 47f 46f
7:00 5 7 mph 1019.9mb 47f 46f
6:54 6
mph
1020.1mb 47f 46f
6:48 5 6 mph 1020.1mb 47f 47f
6:42 5 6 mph 1020.1mb 47f 47f
6:36 6 7 mph 1020.3mb 47f 47f
6:30 3 5 mph 1020.3mb 47f 47f
6:24 2 3 mph 1020.3mb 47f 48f
6:18 3 5 mph 1020.3mb 47f 48f
6:12 3 5 mph 1020.4mb 47f 48f
6:06 5
mph
1020.4mb 46f 48f
6:00 5 6 mph 1020.3mb 46f 48f
5:54 5 7 mph 1020.2mb 46f 50f
5:48 5 6 mph 1020.1mb 46f 49f
5:42 5
mph
1020mb 46f 49f
5:36 3 7 mph 1019.9mb 46f 50f
5:30 6 9 mph 1019.8mb 46f 52f
5:24 7 8 mph 1019.9mb 46f 52f
5:18 5 7 mph 1019.7mb 46f 52f
5:12 7 9 mph 1019.6mb 46f 52f
5:06 3 7 mph 1019.7mb 46f 51f
5:00 6 10 mph 1019.7mb 46f 52f
4:54 3 6 mph 1019.8mb 46f 51f
4:48 6 7 mph 1019.7mb 46f 51f
4:42 7 8 mph 1019.7mb 46f 51f
4:36 7 9 mph 1019.6mb 46f 53f
4:30 6 8 mph 1019.6mb 46f 52f
4:24 3 5 mph 1019.5mb 47f 51f
4:18 6 8 mph 1019.4mb 47f 51f
4:12 7 11 mph 1019.3mb 47f 51f
4:06 9 13 mph 1019.4mb 47f 51f
4:00 9 11 mph 1019.4mb 47f 51f
3:54 10 15 mph 1019.5mb 47f 51f
3:48 13 16 mph 1019.5mb 47f 51f
3:42 11 17 mph 1019.5mb 47f 52f
3:36 13 15 mph 1019.4mb 47f 52f
3:30 11 14 mph 1019.4mb 47f 52f
3:24 10 14 mph 1019.3mb 47f 52f
3:18 10 14 mph 1019.3mb 47f 53f
3:12 11 14 mph 1019.2mb 47f 53f
3:06 11 15 mph 1019.3mb 47f 53f
3:00 10 13 mph 1019.1mb 47f 54f
2:54 9 10 mph 1019mb 47f 55f
2:48 7 9 mph 1019mb 47f 57f
2:42 7 10 mph 1019mb 47f 59f
2:36 3 7 mph 1019.1mb 47f 60f
2:30 5 7 mph 1019mb 47f 60f
2:24 3 8 mph 1018.9mb 47f 60f
2:18 5 9 mph 1019mb 47f 60f
2:12 5 9 mph 1019.1mb 47f 60f
2:06 6 8 mph 1019mb 47f 60f
2:00 3 8 mph 1019.1mb 47f 60f
1:54 5 8 mph 1019.1mb 46f 60f
1:48 6 8 mph 1019.1mb 46f 59f
1:42 6 9 mph 1018.9mb 46f 59f
1:36 5 8 mph 1019mb 46f 59f
1:30 3 7 mph 1019mb 46f 56f
1:24 3 5 mph 1019mb 46f 55f
1:18 2 6 mph 1018.9mb 46f 57f
1:12 3 5 mph 1019mb 46f 58f
1:06 3 8 mph 1019.1mb 46f 58f
1:00 6 8 mph 1019.2mb 46f 58f
12:54 6 10 mph 1019.2mb 46f 58f
12:48 6 8 mph 1019.3mb 46f 58f
12:42 6 8 mph 1019.3mb 46f 57f
12:36 6 8 mph 1019.1mb 46f 57f
12:30 8 11 mph 1019.3mb 46f 57f
12:24 9 11 mph 1019.4mb 46f 57f
12:18 7 11 mph 1019.5mb 46f 56f
12:12 9 11 mph 1019.6mb 46f 56f
12:06 8 10 mph 1019.7mb 46f 56f
12:00 6 10 mph 1019.7mb 46f 56f
11:54 7 10 mph 1019.7mb 46f 56f
11:48 8 11 mph 1019.8mb 46f 55f
11:42 8 10 mph 1019.9mb 46f 55f
11:36 8 9 mph 1019.9mb 46f 55f
11:30 5 8 mph 1019.8mb 46f 55f
11:24 6 8 mph 1020mb 46f 54f
11:18 6 9 mph 1020.2mb 46f 54f
11:12 7 9 mph 1020.3mb 46f 54f
11:06 6 9 mph 1020.4mb 46f 54f
11:00 3 7 mph 1020.3mb 46f 53f
10:54 2 8 mph 1020.1mb 46f 53f
10:48 6 8 mph 1020.3mb 46f 52f
10:42 7 9 mph 1020.4mb 46f 52f
10:36 7 10 mph 1020.6mb 46f 51f
10:30 3 9 mph 1020.4mb 46f 51f
10:24 8 11 mph 1020.6mb 46f 50f
10:18 8 10 mph 1020.7mb 46f 50f
10:12 5 8 mph 1020.7mb 46f 50f
10:06 8 11 mph 1020.8mb 46f 49f
10:00 9 11 mph 1020.8mb 46f 48f
9:54 6 7 mph 1020.7mb 46f 48f
9:48 3 8 mph 1021mb 46f 48f
9:42 6 9 mph 1021.2mb 46f 47f
9:36 5 6 mph 1021.2mb 46f 47f
9:30 5 7 mph 1020.9mb 46f 47f
9:24 5 7 mph 1020.9mb 46f 47f
9:18 5 6 mph 1020.8mb 46f 47f
9:12 5 8 mph 1020.6mb 46f 46f
9:06 5 7 mph 1020.6mb 46f 46f
9:00 6 10 mph 1020.7mb 46f 46f
8:54 7 10 mph 1020.8mb 46f 46f
8:48 6 7 mph 1020.9mb 47f 46f
8:42 6 8 mph 1020.6mb 47f 45f
8:36 6 8 mph 1020.8mb 47f 45f
8:30 7 8 mph 1020.8mb 47f 45f
8:24 3 9 mph 1020.7mb 47f 45f
8:18 6 8 mph 1020.6mb 47f 45f
8:12 7 8 mph 1020.6mb 47f 45f
8:06 6 8 mph 1020.5mb 47f 44f
8:00 7 8 mph 1020.6mb 47f 44f
7:54 5 9 mph 1020.5mb 47f 44f
7:48 5 7 mph 1020.3mb 47f 44f
7:42 6 8 mph 1020.3mb 47f 44f
7:36 2 6 mph 1020.3mb 47f 44f
7:30 3 5 mph 1020.2mb 47f 44f
7:24 3 5 mph 1020.2mb 47f 44f
7:18 5 7 mph 1020.1mb 47f 44f
7:12 6 7 mph 1020.2mb 47f 44f
7:06 5 7 mph 1020.1mb 47f 44f
7:00 5 6 mph 1020.1mb 47f 44f
6:54 3 7 mph 1019.7mb 47f 44f
6:48 5 7 mph 1019.5mb 47f 44f
6:42 5 7 mph 1019.5mb 47f 44f
6:36 6 9 mph 1019.5mb 47f 44f
6:30 5 10 mph 1019.4mb 47f 44f
6:24 8 10 mph 1019.6mb 47f 44f
6:18 3 9 mph 1019.5mb 47f 44f
6:12 8 10 mph 1019.5mb 47f 44f
6:06 6 9 mph 1019.4mb 47f 44f
6:00 6 8 mph 1019.5mb 47f 44f
5:54 6 8 mph 1019.4mb 47f 44f
5:48 6 9 mph 1019.4mb 47f 44f
5:42 7 9 mph 1019.2mb 47f 44f
5:36 6 10 mph 1019.1mb 47f 44f
5:30 7 10 mph 1019.2mb 47f 44f
5:24 7 8 mph 1019.3mb 47f 44f
5:18 6 9 mph 1019.1mb 47f 44f
5:12 6 9 mph 1019.1mb 47f 44f
5:06 6 10 mph 1019.2mb 47f 44f
5:00 6 10 mph 1019.2mb 47f 44f
4:54 6 11 mph 1019.1mb 47f 44f
4:48 6 9 mph 1019mb 47f 44f
4:42 7 13 mph 1019.2mb 47f 45f
4:36 7 11 mph 1019.2mb 47f 45f
4:30 7 13 mph 1019.2mb 47f 45f
4:24 5 8 mph 1019.2mb 47f 45f
4:18 6 8 mph 1019.3mb 47f 45f
4:12 3 8 mph 1019.3mb 47f 45f
4:06 6 10 mph 1019.2mb 47f 45f
4:00 5 10 mph 1019.1mb 47f 45f
3:54 7 10 mph 1019.1mb 47f 45f
3:48 6 9 mph 1019.1mb 47f 44f
3:42 5 9 mph 1019mb 47f 45f
3:36 3 7 mph 1019.1mb 47f 45f
3:30 3 5 mph 1019.2mb 47f 44f
3:24 2 5 mph 1019.2mb 47f 44f
3:18 5 7 mph 1019.1mb 47f 44f
3:12 6 11 mph 1019.2mb 47f 44f
3:06 8 11 mph 1019.1mb 47f 45f
3:00 8 11 mph 1019mb 47f 44f
2:54 6 11 mph 1019.1mb 47f 45f
2:48 8 11 mph 1019mb 47f 45f
2:42 7 13 mph 1019mb 47f 45f
2:36 7 13 mph 1019mb 47f 45f
2:30 7 11 mph 1019mb 47f 45f
2:24 7 11 mph 1019.1mb 47f 45f
2:18 8 11 mph 1019.1mb 47f 45f
2:12 6 13 mph 1019.1mb 47f 45f
2:06 6 10 mph 1019.1mb 47f 45f
2:00 9 13 mph 1019mb 47f 45f
1:54 8 13 mph 1018.9mb 47f 45f
1:48 8 13 mph 1018.9mb 47f 45f
1:42 8 11 mph 1018.7mb 47f 44f
1:36 8 10 mph 1018.7mb 47f 44f
1:30 11 15 mph 1018.7mb 47f 45f
1:24 7 14 mph 1018.7mb 47f 45f
1:18 10 17 mph 1018.6mb 47f 45f
1:12 8 16 mph 1018.6mb 47f 45f
1:06 8 15 mph 1018.5mb 47f 45f
1:00 8 14 mph 1018.5mb 47f 45f
12:54 9 17 mph 1018.5mb 47f 44f
12:48 9 17 mph 1018.6mb 46f 45f
12:42 11 16 mph 1018.7mb 46f 45f
12:36 9 13 mph 1018.6mb 46f 45f
12:30 10 15 mph 1018.7mb 46f 45f
12:24 14 17 mph 1018.6mb 46f 45f
12:18 9 16 mph 1018.6mb 46f 44f
12:12 13 21 mph 1018.6mb 46f 45f
12:06 11 16 mph 1018.7mb 46f 45f
12:00 9 11 mph 1018.7mb 46f 45f
Sa 11/22 11:54 9 14 mph 1018.6mb 46f 45f
11:48 7 14 mph 1018.7mb 46f 45f
11:42 10 16 mph 1018.8mb 46f 45f
11:36 9 15 mph 1018.8mb 46f 45f
11:30 11 18 mph 1018.9mb 46f 45f
11:24 10 18 mph 1018.9mb 46f 45f
11:18 13 20 mph 1018.9mb 46f 45f
11:12 10 14 mph 1018.8mb 46f 44f
11:06 10 15 mph 1018.9mb 46f 44f
11:00 8 16 mph 1018.8mb 46f 44f
10:54 10 16 mph 1018.8mb 46f 44f
10:48 10 14 mph 1018.7mb 46f 44f
10:42 6 10 mph 1018.8mb 46f 44f
10:36 6 16 mph 1018.9mb 46f 44f
10:30 7 13 mph 1018.8mb 46f 44f
10:24 9 14 mph 1018.8mb 46f 44f
10:18 10 14 mph 1018.8mb 46f 44f
10:12 8 15 mph 1018.8mb 46f 44f
10:06 9 13 mph 1018.7mb 47f 44f
10:00 11 21 mph 1018.9mb 47f 44f
9:54 13 18 mph 1019mb 47f 44f
9:48 10 17 mph 1019.1mb 47f 44f
9:42 11 21 mph 1019mb 47f 44f
9:36 10 16 mph 1019mb 47f 44f
9:30 9 15 mph 1019mb 47f 43f
9:24 7 13 mph 1019mb 47f 43f
9:18 9 14 mph 1019.3mb 47f 43f
9:12 8 18 mph 1019.3mb 47f 43f
9:06 10 14 mph 1019.3mb 47f 43f
9:00 13 16 mph 1019.3mb 47f 43f
8:54 11 17 mph 1019.4mb 47f 43f
8:48 13 20 mph 1019.3mb 47f 43f
8:42 9 16 mph 1019.3mb 47f 43f
8:36 13 17 mph 1019.4mb 47f 43f
8:30 10 17 mph 1019.5mb 47f 43f
8:24 8 16 mph 1019.4mb 47f 43f
8:18 14 21 mph 1019.5mb 47f 43f
8:12 10 16 mph 1019.5mb 47f 43f
8:06 9 15 mph 1019.7mb 47f 42f
8:00 8 15 mph 1019.7mb 47f 42f
7:54 8 11 mph 1019.7mb 47f 42f
7:48 6 11 mph 1019.8mb 47f 42f
7:42 8 11 mph 1019.8mb 47f 42f
7:36 8 10 mph 1019.8mb 47f 42f
7:30 9 16 mph 1020mb 47f 42f
7:24 8 11 mph 1020mb 47f 41f
7:18 7 14 mph 1020.2mb 47f 41f
7:12 11 16 mph 1020.3mb 47f 41f
7:06 9 16 mph 1020.5mb 47f 41f
7:00 9 17 mph 1020.5mb 47f 41f
6:54 10 14 mph 1020.6mb 47f 41f
6:48 10 20 mph 1020.4mb 47f 41f
6:42 10 17 mph 1020.2mb 47f 41f
6:36 10 15 mph 1020.4mb 47f 41f
6:30 11 15 mph 1020.4mb 47f 40f
6:24 14 20 mph 1020.5mb 47f 40f
6:18 9 17 mph 1020.6mb 47f 40f
6:12 14 21 mph 1020.9mb 47f 40f
6:06 13 22 mph 1020.8mb 47f 40f
6:00 11 16 mph 1021mb 47f 40f
5:54 14 21 mph 1021.1mb 47f 40f
5:48 11 16 mph 1021mb 47f 40f
5:42 9 16 mph 1021.3mb 47f 40f
5:36 10 16 mph 1021.4mb 47f 40f
5:30 11 17 mph 1021.4mb 47f 40f
5:24 11 15 mph 1021.5mb 47f 40f
5:18 11 17 mph 1021.5mb 47f 40f
5:12 9 15 mph 1021.6mb 47f 40f
5:06 13 16 mph 1021.5mb 47f 40f
5:00 10 18 mph 1021.5mb 47f 40f
4:54 13 20 mph 1021.5mb 47f 40f
4:48 16 20 mph 1021.6mb 47f 40f
4:42 13 16 mph 1021.8mb 47f 40f
4:36 10 18 mph 1021.8mb 47f 40f
4:30 13 18 mph 1021.8mb 47f 40f
4:24 11 17 mph 1022mb 47f 40f
4:18 8 20 mph 1021.9mb 47f 40f
4:12 15 20 mph 1022mb 47f 40f
4:06 14 24 mph 1022mb 47f 40f
4:00 13 22 mph 1022mb 47f 40f
3:54 14 22 mph 1022mb 47f 41f
3:48 13 18 mph 1021.9mb 47f 41f
3:42 9 18 mph 1022mb 47f 41f
3:36 13 20 mph 1022mb 47f 41f
3:30 13 20 mph 1022.1mb 47f 41f
3:24 11 20 mph 1022mb 47f 41f
3:18 16 23 mph 1022mb 47f 42f
3:12 11 17 mph 1022mb 47f 42f
3:06 11 21 mph 1022.1mb 47f 42f
3:00 15 24 mph 1022.2mb 47f 42f
2:54 18 25 mph 1022.3mb 47f 42f
2:48 15 22 mph 1022.3mb 47f 42f
2:42 15 24 mph 1022.4mb 47f 42f
2:36 15 22 mph 1022.3mb 47f 43f
2:30 16 21 mph 1022.4mb 47f 43f
2:24 10 17 mph 1022.5mb 47f 44f
2:18 13 20 mph 1022.5mb 47f 44f
2:12 10 17 mph 1022.5mb 47f 43f
2:06 9 17 mph 1022.5mb 47f 44f
2:00 15 20 mph 1022.6mb 46f 43f
1:54 14 20 mph 1022.8mb 46f 43f
1:48 9 20 mph 1023mb 46f 44f
1:42 11 18 mph 1023.3mb 46f 43f
1:36 14 18 mph 1023.2mb 46f 43f
1:30 16 22 mph 1023.1mb 46f 43f
1:24 15 20 mph 1023.2mb 46f 43f
1:18 11 23 mph 1023.4mb 46f 43f
1:12 14 22 mph 1023.5mb 46f 43f
1:06 14 21 mph 1023.5mb 46f 43f
1:00 15 20 mph 1023.6mb 46f 43f
12:54 14 20 mph 1023.7mb 46f 43f
12:48 14 18 mph 1023.8mb 46f 43f
12:42 10 15 mph 1023.8mb 46f 42f
12:36 9 17 mph 1023.9mb 46f 42f
12:30 9 17 mph 1024mb 46f 42f
12:24 14 18 mph 1024.3mb 46f 42f
12:18 11 16 mph 1024.4mb 46f 41f
12:12 14 17 mph 1024.6mb 46f 41f
12:06 8 15 mph 1024.7mb 46f 41f
12:00 10 17 mph 1024.9mb 46f 40f
11:54 7 17 mph 1025.1mb 46f 41f
11:48 10 14 mph 1025.2mb 46f 40f
11:42 10 17 mph 1025.4mb 46f 40f
11:36 13 17 mph 1025.6mb 46f 39f
11:30 13 18 mph 1025.8mb 46f 39f
11:24 11 18 mph 1025.9mb 46f 38f
11:18 11 17 mph 1026mb 46f 38f
11:12 9 15 mph 1026.3mb 46f 38f
11:06 15 21 mph 1026.5mb 46f 37f
11:00 14 18 mph 1026.8mb 46f 38f
10:54 9 16 mph 1027mb 46f 38f
10:48 9 20 mph 1027.2mb 46f 37f
10:42 11 20 mph 1027.5mb 47f 37f
10:36 9 15 mph 1027.8mb 47f 37f
10:30 9 20 mph 1027.9mb 47f 36f
10:24 9 13 mph 1028mb 47f 36f
10:18 11 16 mph 1028.1mb 47f 36f
10:12 9 13 mph 1028.2mb 47f 35f
10:06 11 20 mph 1028.4mb 47f 35f
10:00 13 18 mph 1028.6mb 47f 35f
9:54 9 16 mph 1028.6mb 47f 35f
9:48 9 13 mph 1028.8mb 47f 34f
9:42 8 15 mph 1029mb 47f 33f
9:36 7 9 mph 1029.1mb 47f 32f
9:30 7 10 mph 1029.3mb 47f 32f
9:24 7 10 mph 1029.3mb 47f 31f
9:18 7 9 mph 1029.3mb 47f 31f
9:12 8 11 mph 1029.4mb 47f 30f
9:06 6 10 mph 1029.4mb 47f 30f
9:00 6 9 mph 1029.5mb 47f 30f
8:54 6 8 mph 1029.7mb 47f 30f
8:48 7 10 mph 1029.7mb 47f 29f
8:42 6 8 mph 1029.8mb 47f 28f
8:36 6 8 mph 1029.9mb 47f 28f
8:30 6 8 mph 1030mb 47f 28f
8:24 5 9 mph 1030.1mb 47f 28f
8:18 5 8 mph 1030.1mb 47f 29f
8:12 3 6 mph 1030.1mb 47f 28f
8:06 3 6 mph 1030mb 47f 28f
8:00 2 3 mph 1030mb 47f 28f
7:54 1 5 mph 1030.1mb 47f 28f
7:48 2 3 mph 1030.2mb 48f 27f
7:42 3 5 mph 1030.3mb 48f 26f
7:36 3 6 mph 1030.3mb 48f 26f
7:30 3 6 mph 1030.2mb 48f 25f
7:24 6 7 mph 1030.2mb 48f 25f
7:18 6
mph
1030.2mb 48f 25f
7:12 5 6 mph 1030.2mb 48f 24f
7:06 5 6 mph 1030.1mb 48f 24f
7:00 3 6 mph 1030.2mb 48f 24f
6:54 5 6 mph 1030.3mb 48f 23f
6:48 5 6 mph 1030.2mb 48f 23f
6:42 5 6 mph 1030.2mb 47f 23f
6:36 2 3 mph 1030.1mb 47f 23f
6:30 3 5 mph 1030.3mb 47f 23f
6:24 3 5 mph 1030.3mb 47f 23f
6:18 2 5 mph 1030.3mb 47f 23f
6:12 3
mph
1030.4mb 47f 23f
6:06 3
mph
1030.5mb 48f 23f
6:00 2 3 mph 1030.5mb 48f 23f
5:54 3
mph
1030.3mb 48f 23f
5:48 3 5 mph 1030.3mb 48f 23f
5:42 3 5 mph 1030.2mb 48f 23f
5:36 3 5 mph 1030.2mb 48f 23f
5:30 2 3 mph 1030.2mb 48f 23f
5:24 3 5 mph 1030.2mb 48f 23f
5:18 3 5 mph 1030.1mb 48f 23f
5:12 3 5 mph 1030.1mb 48f 23f
5:06 3 5 mph 1030.1mb 48f 23f
5:00 2 3 mph 1029.9mb 48f 23f
4:54 2 3 mph 1029.9mb 48f 23f
4:48 2 5 mph 1029.8mb 48f 23f
4:42 5 6 mph 1029.9mb 48f 23f
4:36 3 7 mph 1030.1mb 48f 24f
4:30 6
mph
1030mb 48f 24f
4:24 5 7 mph 1030mb 48f 24f
4:18 6 7 mph 1030.1mb 48f 24f
4:12 3 7 mph 1030.2mb 48f 24f
4:06 5 7 mph 1030.1mb 48f 24f
4:00 6 8 mph 1030mb 47f 24f
3:54 6 7 mph 1030.1mb 46f 24f
3:48 5 7 mph 1030.3mb 46f 24f
3:42 6 7 mph 1030.3mb 46f 24f
3:36 6 8 mph 1030.2mb 46f 24f
3:30 6 7 mph 1030.3mb 46f 24f
3:24 3 5 mph 1030.4mb 46f 24f
3:18 3 5 mph 1030.4mb 46f 24f
3:12 5 6 mph 1030.5mb 46f 24f
3:06 5 6 mph 1030.6mb 46f 25f